, UT

(GMT )
Eagle Range

Weather History for KU16 - April, 2014

Change the Weather History Date:

Tuesday, April 29, 2014

  Actual Average Record
Temperature  
Mean Temperature 42 °F -  
Max Temperature 57 °F - - ()
Min Temperature 26 °F - - ()
Degree Days  
Heating Degree Days 24    
Moisture  
Dew Point 18 °F    
Average Humidity 41    
Maximum Humidity 75    
Minimum Humidity 16    
Precipitation  
Precipitation 0.00 in - - ()
Sea Level Pressure  
Sea Level Pressure 29.28 in    
Wind  
Wind Speed 7 mph (NNE)    
Max Wind Speed 23 mph    
Max Gust Speed 31 mph    
Averages and records for this station are not official NWS values.
T = Trace of Precipitation, MM = Missing Value Source: NWS Daily Summary

Daily Weather History Graph

Daily Weather History Graph

Search for Another Location

Airport or City:

Trip Planner

Search our weather history database for the weather conditions in past years. The results will help you decide how hot, cold, wet, or windy it might be!

Date:

Astronomy

Apr. 29, 2014 Rise Set
Actual Time 6:32 AM MDT 8:27 PM MDT
Civil Twilight 6:03 AM MDT 8:56 PM MDT
Nautical Twilight 5:26 AM MDT 9:33 PM MDT
Astronomical Twilight 4:47 AM MDT 10:12 PM MDT
Moon 6:53 AM MDT (4/29) 9:11 PM MDT (4/29)
Length of Visible Light 14h 53m
Length of Day
13h 54m
New Moon, 0% of the Moon is Illuminated
Apr 29
New Moon
May 6
First Quarter
May 14
Full
May 21
Last Quarter
May 28
New

Hourly Weather History & Observations

Time (MDT) Temp. Windchill Dew Point Humidity Pressure Visibility Wind Dir Wind Speed Gust Speed Precip Events Conditions
12:58 AM 30.9 °F 26.2 °F 21.0 °F 67% 29.20 in - SSE 4.6 mph - N/A   Clear
1:58 AM 30.0 °F 26.5 °F 19.9 °F 66% 29.21 in - ESE 3.5 mph - N/A   Clear
2:58 AM 28.9 °F - 19.0 °F 67% 29.22 in - Calm Calm - N/A   Clear
3:58 AM 28.9 °F - 19.0 °F 67% 29.23 in - Calm Calm - N/A   Clear
4:58 AM 26.1 °F - 18.0 °F 71% 29.25 in - Calm Calm - N/A   Clear
5:58 AM 26.1 °F - 18.0 °F 71% 29.26 in - Calm Calm - N/A   Clear
6:58 AM 26.1 °F - 19.0 °F 75% 29.28 in - Calm Calm - N/A   Clear
7:58 AM 39.0 °F - 21.9 °F 50% 29.30 in - Calm Calm - N/A   Clear
8:58 AM 43.0 °F 36.8 °F 21.9 °F 43% 29.32 in - North 11.5 mph - N/A   Clear
9:58 AM 46.0 °F 40.6 °F 24.1 °F 42% 29.33 in - NNE 11.5 mph - N/A   Clear
10:58 AM 48.9 °F - 23.0 °F 36% 29.33 in - North 11.5 mph - N/A   Clear
11:58 AM 51.1 °F - 16.0 °F 25% 29.33 in - NNE 18.4 mph 23.0 mph N/A   Clear
12:58 PM 52.0 °F - 17.1 °F 25% 29.32 in - North 15.0 mph 21.9 mph N/A   Clear
1:58 PM 54.0 °F - 17.1 °F 23% 29.30 in - NE 9.2 mph 21.9 mph N/A   Clear
2:58 PM 57.0 °F - 12.9 °F 18% 29.29 in - NNE 23.0 mph 28.8 mph N/A   Clear
3:58 PM 57.0 °F - 10.9 °F 16% 29.29 in - NNE 23.0 mph 31.1 mph N/A   Clear
4:58 PM 57.0 °F - 12.0 °F 17% 29.28 in - North 16.1 mph 24.2 mph N/A   Partly Cloudy
5:58 PM 57.0 °F - 10.9 °F 16% 29.27 in - NNE 18.4 mph 28.8 mph N/A   Clear
6:58 PM 55.9 °F - 12.9 °F 18% 29.27 in - NNE 19.6 mph - N/A   Clear
7:58 PM 53.1 °F - 16.0 °F 23% 29.27 in - NNE 16.1 mph - N/A   Clear
8:58 PM 51.1 °F - 17.1 °F 26% 29.27 in - NNE 16.1 mph - N/A   Clear
9:58 PM 50.0 °F - 19.0 °F 29% 29.29 in - NE 12.7 mph - N/A   Clear
10:58 PM 43.0 °F 40.3 °F 24.1 °F 47% 29.30 in - NNE 4.6 mph - N/A   Clear
11:58 PM 41.0 °F 36.4 °F 21.9 °F 47% 29.30 in - North 6.9 mph - N/A   Clear